Torna al catalogo

CZ-6A DEB

AttivoPO
NORAD 60983·DEBRIS·🇨🇳 China

Lanciato Aug 6, 2024 da Taiyuan Satellite Launch Center

Loading…

Prossimi Passaggi (prossime 24 ore)

TLE

AggiornatoSource: Space-Track

Epoca: Sep 14, 2026, 05:24 UTC

1 60983U 24140MJ  26257.22527273  .00000809  00000-0  23394-3 0  9990
2 60983  88.7829 241.2511 0054668  20.0141 340.3188 14.42758808108578

Traccia CZ-6A DEB in tempo reale con AllMySat

Download on the App Store